,,,PA_Meas_PMT16A,,PR_Meas_QMR101_102,,RH_Meas_QMH101,,SR_Meas_QMS101,,TA_Meas_QMH101,,GenWind,,GenWind,
date,time,status,PA,status,PR,status,RH,status,SR,status,TA,status,DirAvg,status,SpdAvg,
2010-12-24, 00:00:04,VALID,999.987,VALID,0,INVALID,163.639,VALID,0,VALID,25.1794,VALID,298,VALID,0.227734,
2010-12-24, 00:01:04,VALID,999.949,VALID,0,INVALID,163.617,VALID,0,VALID,25.2592,VALID,351,VALID,0.767187,
2010-12-24, 00:02:04,VALID,999.915,VALID,0,INVALID,163.601,VALID,0,VALID,25.2981,VALID,185,VALID,0.296094,
2010-12-24, 00:03:04,VALID,999.896,VALID,0,INVALID,163.617,VALID,0,VALID,25.376,VALID,357,VALID,1.02656,
2010-12-24, 00:04:04,VALID,999.836,VALID,0,INVALID,163.617,VALID,0,VALID,25.4344,VALID,350,VALID,0.557813,
2010-12-24, 00:05:04,VALID,999.797,VALID,0,INVALID,163.586,VALID,0,VALID,25.4948,VALID,357,VALID,0.939453,
2010-12-24, 00:06:04,VALID,999.777,VALID,0,INVALID,163.563,VALID,0,VALID,25.5142,VALID,351,VALID,1.22031,
2010-12-24, 00:07:04,VALID,999.771,VALID,0,INVALID,163.617,VALID,0,VALID,25.5513,VALID,339,VALID,0.994141,
2010-12-24, 00:08:04,VALID,999.739,VALID,0,INVALID,163.601,VALID,0,VALID,25.5902,VALID,304,VALID,0.316797,
2010-12-24, 00:09:04,VALID,999.721,VALID,0,INVALID,163.617,VALID,0,VALID,25.5902,VALID,351,VALID,1.31875,
2010-12-24, 00:10:04,VALID,999.741,VALID,0,INVALID,163.594,VALID,0,VALID,25.6486,VALID,282,VALID,0.530469,
2010-12-24, 00:11:04,VALID,999.695,VALID,0,INVALID,163.594,VALID,0,VALID,25.7071,VALID,347,VALID,1.44922,
2010-12-24, 00:12:04,VALID,999.688,VALID,0,INVALID,163.556,VALID,0,VALID,25.7674,VALID,321,VALID,0.989453,
2010-12-24, 00:13:04,VALID,999.659,VALID,0,INVALID,156.606,VALID,0,VALID,25.8064,VALID,343,VALID,0.680469,
2010-12-24, 00:14:04,VALID,999.678,VALID,0,INVALID,148.962,VALID,0,VALID,25.8259,VALID,280,VALID,0.304688,
2010-12-24, 00:15:04,VALID,999.637,VALID,0,INVALID,144.59,VALID,0,VALID,25.8044,VALID,299,VALID,0.726953,
2010-12-24, 00:16:04,VALID,999.599,VALID,0,INVALID,141.119,VALID,0,VALID,25.8044,VALID,279,VALID,1.09648,
2010-12-24, 00:17:04,VALID,999.57,VALID,0,INVALID,137.205,VALID,0,VALID,25.8259,VALID,310,VALID,0.981641,
2010-12-24, 00:18:04,VALID,999.56,VALID,0,INVALID,135.169,VALID,0,VALID,25.8239,VALID,296,VALID,0.91875,
2010-12-24, 00:19:04,VALID,999.546,VALID,0,INVALID,137.77,VALID,0,VALID,25.8259,VALID,316,VALID,0.347656,
2010-12-24, 00:20:04,VALID,999.557,VALID,0,INVALID,145.002,VALID,0,VALID,25.785,VALID,349,VALID,0.305859,
2010-12-24, 00:21:04,VALID,999.489,VALID,0,INVALID,151.296,VALID,0,VALID,25.7655,VALID,297,VALID,0.557813,
2010-12-24, 00:22:04,VALID,999.544,VALID,0,INVALID,160.107,VALID,0,VALID,25.746,VALID,337,VALID,0.320313,
2010-12-24, 00:23:04,VALID,999.537,VALID,0,INVALID,163.548,VALID,0,VALID,25.7265,VALID,356,VALID,0.598828,
2010-12-24, 00:24:04,VALID,999.522,VALID,0,INVALID,163.563,VALID,0,VALID,25.7071,VALID,349,VALID,0.326562,
2010-12-24, 00:25:04,VALID,999.543,VALID,0,INVALID,163.571,VALID,0,VALID,25.6876,VALID,280,VALID,0.311328,
2010-12-24, 00:26:04,VALID,999.566,VALID,0,INVALID,163.586,VALID,0,VALID,25.6681,VALID,338,VALID,0.167969,
2010-12-24, 00:27:04,VALID,999.571,VALID,0,INVALID,163.578,VALID,0,VALID,25.6681,VALID,339,VALID,0.161328,
2010-12-24, 00:28:04,VALID,999.594,VALID,0,INVALID,163.586,VALID,0,VALID,25.67,VALID,297,VALID,0.141406,
2010-12-24, 00:29:04,VALID,999.575,VALID,0,INVALID,163.601,VALID,0,VALID,25.6292,VALID,305,VALID,0.394141,
2010-12-24, 00:30:04,VALID,999.572,VALID,0,INVALID,163.578,VALID,0,VALID,25.6486,VALID,277,VALID,0.189063,
2010-12-24, 00:31:04,VALID,999.533,VALID,0,INVALID,163.571,VALID,0,VALID,25.6486,VALID,332,VALID,0.435547,
2010-12-24, 00:32:04,VALID,999.531,VALID,0,INVALID,163.563,VALID,0,VALID,25.6681,VALID,283,VALID,1.125,
2010-12-24, 00:33:04,VALID,999.523,VALID,0,INVALID,163.594,VALID,0,VALID,25.709,VALID,348,VALID,0.648828,
2010-12-24, 00:34:04,VALID,999.505,VALID,0,INVALID,163.586,VALID,0,VALID,25.748,VALID,216,VALID,0.482422,
2010-12-24, 00:35:04,VALID,999.454,VALID,0,INVALID,163.586,VALID,0,VALID,25.7285,VALID,73,VALID,0.467187,
2010-12-24, 00:36:04,VALID,999.407,VALID,0,INVALID,163.571,VALID,0,VALID,25.748,VALID,270,VALID,0.49375,
2010-12-24, 00:37:04,VALID,999.373,VALID,0,INVALID,163.586,VALID,0,VALID,25.7285,VALID,7,VALID,0.796094,
2010-12-24, 00:38:04,VALID,999.329,VALID,0,INVALID,163.571,VALID,0,VALID,25.748,VALID,314,VALID,0.728125,
2010-12-24, 00:39:04,VALID,999.295,VALID,0,INVALID,163.578,VALID,0,VALID,25.7265,VALID,330,VALID,0.386719,
2010-12-24, 00:40:04,VALID,999.302,VALID,0,INVALID,163.548,VALID,0,VALID,25.7285,VALID,31,VALID,0.342969,
2010-12-24, 00:41:04,VALID,999.308,VALID,0,INVALID,163.571,VALID,0,VALID,25.6876,VALID,348,VALID,0.559766,
2010-12-24, 00:42:04,VALID,999.284,VALID,0,INVALID,163.556,VALID,0,VALID,25.7265,VALID,359,VALID,0.499609,
2010-12-24, 00:43:04,VALID,999.247,VALID,0,INVALID,163.556,VALID,0,VALID,25.748,VALID,306,VALID,0.173438,
2010-12-24, 00:44:04,VALID,999.259,VALID,0,INVALID,163.54,VALID,0,VALID,25.7674,VALID,336,VALID,0.541406,
2010-12-24, 00:45:04,VALID,999.256,VALID,0,INVALID,163.563,VALID,0,VALID,25.748,VALID,334,VALID,0.185547,
2010-12-24, 00:46:04,VALID,999.221,VALID,0,INVALID,163.571,VALID,0,VALID,25.7265,VALID,293,VALID,0.297266,
2010-12-24, 00:47:04,VALID,999.207,VALID,0,INVALID,163.517,VALID,0,VALID,25.7265,VALID,312,VALID,0.848047,
2010-12-24, 00:48:04,VALID,999.274,VALID,0,INVALID,163.395,VALID,0,VALID,25.7674,VALID,343,VALID,0.923437,
2010-12-24, 00:49:04,VALID,999.237,VALID,0,INVALID,163.388,VALID,0,VALID,25.7265,VALID,315,VALID,0.488672,
2010-12-24, 00:50:04,VALID,999.235,VALID,0,INVALID,163.556,VALID,0,VALID,25.7285,VALID,352,VALID,0.828125,
2010-12-24, 00:51:04,VALID,999.15,VALID,0,INVALID,163.556,VALID,0,VALID,25.7285,VALID,356,VALID,0.298438,
2010-12-24, 00:52:04,VALID,999.128,VALID,0,INVALID,163.548,VALID,0,VALID,25.709,VALID,329,VALID,0.884766,
2010-12-24, 00:53:04,VALID,999.113,VALID,0,INVALID,163.578,VALID,0,VALID,25.6681,VALID,300,VALID,0.544141,
2010-12-24, 00:54:04,VALID,999.138,VALID,0,INVALID,163.54,VALID,0,VALID,25.6506,VALID,291,VALID,0.803516,
2010-12-24, 00:55:04,VALID,999.127,VALID,0,INVALID,152.578,VALID,0,VALID,25.6292,VALID,301,VALID,0.875781,
2010-12-24, 00:56:04,VALID,999.098,VALID,0,INVALID,142.866,VALID,0,VALID,25.6311,VALID,290,VALID,0.853906,
2010-12-24, 00:57:04,VALID,999.114,VALID,0,INVALID,131.186,VALID,0,VALID,25.6292,VALID,353,VALID,1.20625,
2010-12-24, 00:58:04,VALID,999.132,VALID,0,INVALID,123.55,VALID,0,VALID,25.67,VALID,299,VALID,0.769922,
2010-12-24, 00:59:04,VALID,999.085,VALID,0,INVALID,111.733,VALID,0,VALID,25.6895,VALID,330,VALID,1.4707,
2010-12-24, 01:00:04,VALID,999.045,VALID,0,VALID,104,VALID,0,VALID,25.709,VALID,358,VALID,1.64609,
2010-12-24, 01:01:04,VALID,999.047,VALID,0,VALID,104,VALID,0,VALID,25.7265,VALID,315,VALID,1.17578,
2010-12-24, 01:02:04,VALID,999.024,VALID,0,VALID,104,VALID,0,VALID,25.746,VALID,354,VALID,1.91445,
2010-12-24, 01:03:04,VALID,999.034,VALID,0,VALID,104,VALID,0,VALID,25.7265,VALID,330,VALID,1.30391,
2010-12-24, 01:04:04,VALID,999.068,VALID,0,VALID,102.662,VALID,0,VALID,25.709,VALID,295,VALID,3.26875,
2010-12-24, 01:05:04,VALID,998.939,VALID,0,VALID,103.486,VALID,0,VALID,25.6292,VALID,306,VALID,4.03555,
2010-12-24, 01:06:04,VALID,998.981,VALID,0,VALID,104,VALID,0,VALID,25.5318,VALID,254,VALID,1.3332,
2010-12-24, 01:07:04,VALID,999.036,VALID,0,VALID,104,VALID,0,VALID,25.4539,VALID,10,VALID,2.12969,
2010-12-24, 01:08:04,VALID,998.973,VALID,0,INVALID,121.78,VALID,0,VALID,25.2981,VALID,263,VALID,1.74688,
2010-12-24, 01:09:04,VALID,998.957,VALID,0,INVALID,163.578,VALID,0,VALID,25.1832,VALID,347,VALID,1.03164,
2010-12-24, 01:10:04,VALID,998.924,VALID,0.5,INVALID,163.601,VALID,0,VALID,24.9652,VALID,305,VALID,4.69141,
2010-12-24, 01:11:04,VALID,998.918,VALID,0,INVALID,163.639,VALID,0,VALID,24.8503,VALID,349,VALID,2.40117,
2010-12-24, 01:12:04,VALID,998.975,VALID,0,INVALID,163.639,VALID,0,VALID,24.6945,VALID,237,VALID,1.06602,
2010-12-24, 01:13:04,VALID,998.956,VALID,0,INVALID,163.685,VALID,0,VALID,24.6185,VALID,286,VALID,2.23984,
2010-12-24, 01:14:04,VALID,999.036,VALID,0.5,INVALID,163.67,VALID,0,VALID,24.4998,VALID,326,VALID,1.9457,
2010-12-24, 01:15:04,VALID,999.001,VALID,0,INVALID,163.67,VALID,0,VALID,24.4433,VALID,291,VALID,0.95,
2010-12-24, 01:16:04,VALID,999.036,VALID,0.5,INVALID,163.716,VALID,0,VALID,24.3441,VALID,317,VALID,2.1918,
2010-12-24, 01:17:04,VALID,998.994,VALID,0,INVALID,163.723,VALID,0,VALID,24.2875,VALID,317,VALID,1.81953,
2010-12-24, 01:18:04,VALID,998.917,VALID,0,INVALID,163.701,VALID,0,VALID,24.2486,VALID,292,VALID,1.80234,
2010-12-24, 01:19:04,VALID,998.898,VALID,0,INVALID,163.685,VALID,0,VALID,24.1494,VALID,314,VALID,1.40937,
2010-12-24, 01:20:04,VALID,998.86,VALID,0,INVALID,163.701,VALID,0,VALID,24.1105,VALID,330,VALID,2.29336,
2010-12-24, 01:21:04,VALID,998.848,VALID,0,INVALID,163.701,VALID,0,VALID,24.091,VALID,310,VALID,2.81406,
2010-12-24, 01:22:04,VALID,998.854,VALID,0,INVALID,163.708,VALID,0,VALID,24.0716,VALID,313,VALID,1.32383,
2010-12-24, 01:23:04,VALID,998.866,VALID,0,INVALID,163.746,VALID,0,VALID,24.0521,VALID,323,VALID,1.01563,
2010-12-24, 01:24:04,VALID,998.779,VALID,0,INVALID,163.723,VALID,0,VALID,24.015,VALID,336,VALID,1.51211,
2010-12-24, 01:25:04,VALID,998.816,VALID,0,INVALID,163.708,VALID,0,VALID,24.0132,VALID,177,VALID,0.586328,
2010-12-24, 01:26:04,VALID,998.793,VALID,0,INVALID,163.708,VALID,0,VALID,23.9937,VALID,329,VALID,1.25937,
2010-12-24, 01:27:04,VALID,998.731,VALID,0,INVALID,163.716,VALID,0,VALID,23.9742,VALID,296,VALID,2.26523,
2010-12-24, 01:28:04,VALID,998.668,VALID,0,INVALID,163.716,VALID,0,VALID,24.0132,VALID,323,VALID,1.16797,
2010-12-24, 01:29:04,VALID,998.644,VALID,0,INVALID,163.716,VALID,0,VALID,23.9937,VALID,332,VALID,0.995313,
2010-12-24, 01:30:04,VALID,998.602,VALID,0,INVALID,163.739,VALID,0,VALID,23.9937,VALID,347,VALID,1.06602,
2010-12-24, 01:31:04,VALID,998.512,VALID,0,INVALID,163.701,VALID,0,VALID,23.9937,VALID,284,VALID,1.78242,
2010-12-24, 01:32:04,VALID,998.523,VALID,0,INVALID,163.701,VALID,0,VALID,24.0132,VALID,325,VALID,1.81289,
2010-12-24, 01:33:04,VALID,998.482,VALID,0,INVALID,163.739,VALID,0,VALID,24.0539,VALID,278,VALID,0.507031,
2010-12-24, 01:34:04,VALID,998.443,VALID,0,INVALID,163.716,VALID,0,VALID,24.0326,VALID,290,VALID,1.24102,
2010-12-24, 01:35:04,VALID,998.376,VALID,0,INVALID,163.716,VALID,0,VALID,24.0326,VALID,331,VALID,0.811328,
2010-12-24, 01:36:04,VALID,998.367,VALID,0.5,INVALID,163.701,VALID,0,VALID,24.0326,VALID,292,VALID,0.698047,
2010-12-24, 01:37:04,VALID,998.292,VALID,0,INVALID,163.716,VALID,0.100563,VALID,24.0521,VALID,329,VALID,0.964453,
2010-12-24, 01:38:04,VALID,998.281,VALID,0,INVALID,163.716,VALID,0,VALID,24.0521,VALID,269,VALID,1.27617,
2010-12-24, 01:39:04,VALID,998.306,VALID,0,INVALID,163.701,VALID,0,VALID,24.0521,VALID,347,VALID,1.53398,
2010-12-24, 01:40:04,VALID,998.314,VALID,0,INVALID,163.708,VALID,0,VALID,24.0716,VALID,286,VALID,0.516406,
2010-12-24, 01:41:04,VALID,998.358,VALID,0,INVALID,163.716,VALID,0,VALID,24.0716,VALID,301,VALID,0.446875,
2010-12-24, 01:42:04,VALID,998.361,VALID,0,INVALID,163.708,VALID,0,VALID,24.091,VALID,257,VALID,0.246875,
2010-12-24, 01:43:04,VALID,998.42,VALID,0,INVALID,163.723,VALID,0,VALID,24.0697,VALID,280,VALID,1.0043,
2010-12-24, 01:44:04,VALID,998.463,VALID,0,INVALID,163.723,VALID,0,VALID,24.1087,VALID,296,VALID,0.758594,
2010-12-24, 01:45:04,VALID,998.495,VALID,0,INVALID,163.701,VALID,0,VALID,24.1087,VALID,356,VALID,1.19336,
2010-12-24, 01:46:04,VALID,998.545,VALID,0,INVALID,163.701,VALID,0,VALID,24.1281,VALID,354,VALID,0.488281,
2010-12-24, 01:47:04,VALID,998.551,VALID,0,INVALID,163.716,VALID,0,VALID,24.1494,VALID,351,VALID,0.740625,
2010-12-24, 01:48:04,VALID,998.554,VALID,0,INVALID,163.701,VALID,0,VALID,24.1087,VALID,309,VALID,0.564844,
2010-12-24, 01:49:04,VALID,998.511,VALID,0,INVALID,163.731,VALID,0,VALID,24.1281,VALID,288,VALID,0.385938,
2010-12-24, 01:50:04,VALID,998.52,VALID,0,INVALID,163.708,VALID,0,VALID,24.1494,VALID,323,VALID,0.348047,
2010-12-24, 01:51:04,VALID,998.479,VALID,0,INVALID,163.701,VALID,0,VALID,24.1494,VALID,292,VALID,0.237109,
2010-12-24, 01:52:04,VALID,998.463,VALID,0,INVALID,163.708,VALID,0,VALID,24.1689,VALID,323,VALID,0.493359,
2010-12-24, 01:53:04,VALID,998.476,VALID,0,INVALID,163.731,VALID,0,VALID,24.2078,VALID,276,VALID,0.495703,
2010-12-24, 01:54:04,VALID,998.503,VALID,0,INVALID,163.685,VALID,0,VALID,24.2255,VALID,310,VALID,0.882422,
2010-12-24, 01:55:04,VALID,998.499,VALID,0,INVALID,163.662,VALID,0,VALID,24.3636,VALID,272,VALID,2.67734,
2010-12-24, 01:56:04,VALID,998.456,VALID,0,INVALID,163.693,VALID,0,VALID,24.5017,VALID,277,VALID,1.36016,
2010-12-24, 01:57:04,VALID,998.52,VALID,0,INVALID,163.701,VALID,0,VALID,24.5777,VALID,276,VALID,1.53203,
2010-12-24, 01:58:04,VALID,998.573,VALID,0,INVALID,163.701,VALID,0.100563,VALID,24.6148,VALID,266,VALID,0.586328,
2010-12-24, 01:59:04,VALID,998.628,VALID,0,INVALID,163.647,VALID,0,VALID,24.675,VALID,299,VALID,1.00859,
2010-12-24, 02:00:04,VALID,998.623,VALID,0,INVALID,163.685,VALID,0,VALID,24.6945,VALID,315,VALID,0.902734,
2010-12-24, 02:01:04,VALID,998.644,VALID,0,INVALID,163.662,VALID,0,VALID,24.6945,VALID,1,VALID,1.32383,
2010-12-24, 02:02:04,VALID,998.648,VALID,0,INVALID,130.217,VALID,0,VALID,24.675,VALID,311,VALID,1.69727,
2010-12-24, 02:03:04,VALID,998.634,VALID,0,INVALID,114.586,VALID,0,VALID,24.675,VALID,324,VALID,0.762109,
2010-12-24, 02:04:04,VALID,998.638,VALID,0,VALID,104,VALID,0,VALID,24.714,VALID,310,VALID,0.745313,
2010-12-24, 02:05:04,VALID,998.612,VALID,0,VALID,104,VALID,0,VALID,24.7529,VALID,356,VALID,1.07266,
2010-12-24, 02:06:04,VALID,998.563,VALID,0,INVALID,109.162,VALID,0,VALID,24.7335,VALID,337,VALID,0.523828,
2010-12-24, 02:07:04,VALID,998.612,VALID,0,INVALID,119.804,VALID,0,VALID,24.675,VALID,13,VALID,0.224219,
2010-12-24, 02:08:04,VALID,998.614,VALID,0,INVALID,136.336,VALID,0.100563,VALID,24.6361,VALID,345,VALID,0.989844,
2010-12-24, 02:09:04,VALID,998.636,VALID,0,INVALID,163.632,VALID,0,VALID,24.5758,VALID,41,VALID,0.208594,
2010-12-24, 02:10:04,VALID,998.614,VALID,0,INVALID,163.678,VALID,0,VALID,24.5777,VALID,14,VALID,0.464063,
2010-12-24, 02:11:04,VALID,998.589,VALID,0,INVALID,163.685,VALID,0,VALID,24.5388,VALID,19,VALID,0.278906,
2010-12-24, 02:12:04,VALID,998.628,VALID,0,INVALID,163.693,VALID,0,VALID,24.5212,VALID,354,VALID,0.230078,
2010-12-24, 02:13:04,VALID,998.559,VALID,0,INVALID,163.685,VALID,0,VALID,24.4998,VALID,348,VALID,0.464844,
2010-12-24, 02:14:04,VALID,998.535,VALID,0,INVALID,163.655,VALID,0,VALID,24.4998,VALID,4,VALID,0.252734,
2010-12-24, 02:15:04,VALID,998.487,VALID,0,INVALID,163.693,VALID,0,VALID,24.4998,VALID,4,VALID,0.1375,
2010-12-24, 02:16:04,VALID,998.441,VALID,0,INVALID,163.701,VALID,0,VALID,24.4804,VALID,4,VALID,0,
2010-12-24, 02:17:04,VALID,998.385,VALID,0,INVALID,163.678,VALID,0,VALID,24.4804,VALID,3,VALID,0.708203,
2010-12-24, 02:18:04,VALID,998.352,VALID,0,INVALID,163.678,VALID,0,VALID,24.4804,VALID,351,VALID,0.929297,
2010-12-24, 02:19:04,VALID,998.322,VALID,0,INVALID,163.685,VALID,0.100563,VALID,24.4998,VALID,350,VALID,0.857031,
2010-12-24, 02:20:04,VALID,998.286,VALID,0,INVALID,163.716,VALID,0,VALID,24.4998,VALID,348,VALID,0.780078,
2010-12-24, 02:21:04,VALID,998.229,VALID,0,INVALID,163.639,VALID,0,VALID,24.4998,VALID,338,VALID,0.783203,
2010-12-24, 02:22:04,VALID,998.197,VALID,0,INVALID,163.662,VALID,0,VALID,24.5193,VALID,356,VALID,0.431641,
2010-12-24, 02:23:04,VALID,998.195,VALID,0,INVALID,163.693,VALID,0,VALID,24.5193,VALID,279,VALID,0.262891,
2010-12-24, 02:24:04,VALID,998.183,VALID,0,INVALID,163.685,VALID,0,VALID,24.5174,VALID,297,VALID,0.18125,
2010-12-24, 02:25:04,VALID,998.173,VALID,0,INVALID,163.662,VALID,0,VALID,24.5582,VALID,346,VALID,0.86875,
2010-12-24, 02:26:04,VALID,998.203,VALID,0,INVALID,163.662,VALID,0.100563,VALID,24.5972,VALID,358,VALID,0.427734,
2010-12-24, 02:27:04,VALID,998.237,VALID,0,INVALID,163.678,VALID,0,VALID,24.6361,VALID,349,VALID,0.660156,
2010-12-24, 02:28:04,VALID,998.256,VALID,0.5,INVALID,163.685,VALID,0,VALID,24.6556,VALID,354,VALID,1.37852,
2010-12-24, 02:29:04,VALID,998.25,VALID,0.5,INVALID,163.678,VALID,0,VALID,24.6342,VALID,355,VALID,1.47187,
2010-12-24, 02:30:04,VALID,998.273,VALID,0.5,INVALID,163.662,VALID,0,VALID,24.638,VALID,345,VALID,1.64688,
2010-12-24, 02:31:04,VALID,998.282,VALID,0,INVALID,163.685,VALID,0,VALID,24.5193,VALID,348,VALID,1.16914,
2010-12-24, 02:32:04,VALID,998.31,VALID,0,INVALID,163.716,VALID,0,VALID,24.459,VALID,352,VALID,0.730469,
2010-12-24, 02:33:04,VALID,998.375,VALID,0,INVALID,163.678,VALID,0,VALID,24.4609,VALID,360,VALID,0.925,
2010-12-24, 02:34:04,VALID,998.41,VALID,0,INVALID,163.701,VALID,0,VALID,24.459,VALID,345,VALID,0.531641,
2010-12-24, 02:35:04,VALID,998.442,VALID,0,INVALID,163.693,VALID,0,VALID,24.5193,VALID,4,VALID,0.893359,
2010-12-24, 02:36:04,VALID,998.474,VALID,0.5,INVALID,163.701,VALID,0.100563,VALID,24.5369,VALID,342,VALID,1.025,
2010-12-24, 02:37:04,VALID,998.494,VALID,0,INVALID,163.693,VALID,0,VALID,24.5972,VALID,76,VALID,0.474219,
2010-12-24, 02:38:04,VALID,998.515,VALID,0,INVALID,163.685,VALID,0,VALID,24.5972,VALID,334,VALID,1.10078,
2010-12-24, 02:39:04,VALID,998.519,VALID,0,INVALID,163.701,VALID,0.100563,VALID,24.6166,VALID,355,VALID,0.685938,
2010-12-24, 02:40:04,VALID,998.498,VALID,0,INVALID,163.67,VALID,0,VALID,24.6166,VALID,265,VALID,0.810938,
2010-12-24, 02:41:04,VALID,998.488,VALID,0,INVALID,163.67,VALID,0,VALID,24.6361,VALID,351,VALID,1.44883,
2010-12-24, 02:42:04,VALID,998.503,VALID,0,INVALID,163.67,VALID,0,VALID,24.6361,VALID,357,VALID,0.892578,
2010-12-24, 02:43:04,VALID,998.473,VALID,0,INVALID,163.662,VALID,0,VALID,24.6361,VALID,356,VALID,0.586719,
2010-12-24, 02:44:04,VALID,998.425,VALID,0,INVALID,163.678,VALID,0,VALID,24.6148,VALID,343,VALID,1.42969,
2010-12-24, 02:45:04,VALID,998.466,VALID,0,INVALID,163.67,VALID,0,VALID,24.6361,VALID,344,VALID,0.784375,
2010-12-24, 02:46:04,VALID,998.455,VALID,0,INVALID,163.693,VALID,0,VALID,24.5953,VALID,349,VALID,1.36211,
2010-12-24, 02:47:04,VALID,998.445,VALID,0,INVALID,163.662,VALID,0,VALID,24.6361,VALID,354,VALID,1.03242,
2010-12-24, 02:48:04,VALID,998.436,VALID,0,INVALID,163.662,VALID,0,VALID,24.6166,VALID,351,VALID,1.18281,
2010-12-24, 02:49:04,VALID,998.43,VALID,0,INVALID,163.693,VALID,0,VALID,24.6166,VALID,353,VALID,1.0082,
2010-12-24, 02:50:04,VALID,998.391,VALID,0,INVALID,163.67,VALID,0,VALID,24.5972,VALID,333,VALID,0.936719,
2010-12-24, 02:51:04,VALID,998.362,VALID,0,INVALID,163.685,VALID,0,VALID,24.5972,VALID,350,VALID,1.51719,
2010-12-24, 02:52:04,VALID,998.297,VALID,0,INVALID,163.678,VALID,0,VALID,24.5777,VALID,353,VALID,1.02461,
2010-12-24, 02:53:04,VALID,998.282,VALID,0,INVALID,163.662,VALID,0,VALID,24.6185,VALID,348,VALID,0.841797,
2010-12-24, 02:54:05,VALID,998.223,VALID,0,INVALID,163.655,VALID,0,VALID,24.5972,VALID,340,VALID,1.14297,
2010-12-24, 02:55:05,VALID,998.193,VALID,0,INVALID,163.67,VALID,0,VALID,24.5972,VALID,359,VALID,1.39531,
2010-12-24, 02:56:05,VALID,998.196,VALID,0,INVALID,163.693,VALID,0,VALID,24.6185,VALID,339,VALID,1.19687,
2010-12-24, 02:57:05,VALID,998.197,VALID,0,INVALID,163.678,VALID,0,VALID,24.5972,VALID,319,VALID,0.500781,
2010-12-24, 02:58:05,VALID,998.196,VALID,0,INVALID,163.655,VALID,0,VALID,24.638,VALID,330,VALID,0.706641,
2010-12-24, 02:59:05,VALID,998.176,VALID,0,INVALID,163.685,VALID,0,VALID,24.6361,VALID,330,VALID,0.400391,
2010-12-24, 03:00:05,VALID,998.21,VALID,0,INVALID,163.647,VALID,0,VALID,24.6574,VALID,356,VALID,0.790625,
2010-12-24, 03:01:05,VALID,998.199,VALID,0,INVALID,163.67,VALID,0,VALID,24.6556,VALID,340,VALID,0.307422,
2010-12-24, 03:02:05,VALID,998.18,VALID,0,INVALID,163.678,VALID,0,VALID,24.6769,VALID,350,VALID,0.947266,
2010-12-24, 03:03:05,VALID,998.171,VALID,0,INVALID,163.662,VALID,0,VALID,24.675,VALID,4,VALID,0.787891,
2010-12-24, 03:04:05,VALID,998.201,VALID,0,INVALID,163.67,VALID,0,VALID,24.6945,VALID,354,VALID,0.527344,
2010-12-24, 03:05:05,VALID,998.189,VALID,0,INVALID,163.685,VALID,0,VALID,24.7353,VALID,357,VALID,0.326953,
2010-12-24, 03:06:05,VALID,998.17,VALID,0,INVALID,163.678,VALID,0,VALID,24.7159,VALID,360,VALID,0.783984,
2010-12-24, 03:07:05,VALID,998.132,VALID,0,INVALID,163.662,VALID,0,VALID,24.714,VALID,357,VALID,0.970703,
2010-12-24, 03:08:05,VALID,998.105,VALID,0,INVALID,163.662,VALID,0,VALID,24.7335,VALID,336,VALID,0.129297,
2010-12-24, 03:09:05,VALID,998.111,VALID,0,INVALID,163.647,VALID,0,VALID,24.7335,VALID,354,VALID,0.484375,
2010-12-24, 03:10:05,VALID,998.125,VALID,0,INVALID,163.662,VALID,0,VALID,24.7335,VALID,347,VALID,0.164453,
2010-12-24, 03:11:05,VALID,998.069,VALID,0,INVALID,163.67,VALID,0,VALID,24.7335,VALID,346,VALID,0.733203,
2010-12-24, 03:12:05,VALID,998.073,VALID,0,INVALID,163.693,VALID,0,VALID,24.714,VALID,358,VALID,0.973047,
2010-12-24, 03:13:05,VALID,998.04,VALID,0,INVALID,163.685,VALID,0,VALID,24.7529,VALID,350,VALID,0.858594,
2010-12-24, 03:14:05,VALID,998.032,VALID,0,INVALID,163.662,VALID,0,VALID,24.7529,VALID,348,VALID,1.09727,
2010-12-24, 03:15:05,VALID,998.013,VALID,0,INVALID,163.678,VALID,0.100563,VALID,24.7335,VALID,1,VALID,1.12227,
2010-12-24, 03:16:05,VALID,997.986,VALID,0,INVALID,163.655,VALID,0,VALID,24.7335,VALID,349,VALID,0.441797,
2010-12-24, 03:17:05,VALID,998.024,VALID,0,INVALID,163.685,VALID,0,VALID,24.7335,VALID,353,VALID,1.17031,
2010-12-24, 03:18:05,VALID,998.04,VALID,0,INVALID,163.678,VALID,0,VALID,24.6926,VALID,342,VALID,1.16328,
2010-12-24, 03:19:05,VALID,997.991,VALID,0.5,INVALID,163.678,VALID,0,VALID,24.6945,VALID,359,VALID,1.25781,
2010-12-24, 03:20:05,VALID,998.024,VALID,0,INVALID,163.655,VALID,0,VALID,24.675,VALID,355,VALID,1.04922,
2010-12-24, 03:21:05,VALID,998.068,VALID,0,INVALID,163.655,VALID,0.100563,VALID,24.6945,VALID,357,VALID,0.778516,
2010-12-24, 03:22:05,VALID,998.05,VALID,0,INVALID,163.655,VALID,0,VALID,24.6945,VALID,352,VALID,1.21602,
2010-12-24, 03:23:05,VALID,998.042,VALID,0,INVALID,163.655,VALID,0,VALID,24.6945,VALID,356,VALID,1.75547,
2010-12-24, 03:24:05,VALID,998.074,VALID,0,INVALID,163.685,VALID,0,VALID,24.6945,VALID,345,VALID,1.52969,
2010-12-24, 03:25:05,VALID,998.049,VALID,0,INVALID,163.67,VALID,0,VALID,24.714,VALID,348,VALID,0.439063,
2010-12-24, 03:26:05,VALID,998.097,VALID,0,INVALID,163.678,VALID,0,VALID,24.7353,VALID,252,VALID,0.454297,
2010-12-24, 03:27:05,VALID,998.127,VALID,0,INVALID,163.67,VALID,0,VALID,24.7353,VALID,279,VALID,0.394922,
2010-12-24, 03:28:05,VALID,998.118,VALID,0,INVALID,163.678,VALID,0.100563,VALID,24.6945,VALID,257,VALID,0.729688,
2010-12-24, 03:29:05,VALID,998.177,VALID,0,INVALID,163.662,VALID,0,VALID,24.714,VALID,232,VALID,0.505469,
2010-12-24, 03:30:05,VALID,998.18,VALID,0,INVALID,163.662,VALID,0,VALID,24.714,VALID,292,VALID,0.864844,
2010-12-24, 03:31:05,VALID,998.145,VALID,0,INVALID,163.647,VALID,0,VALID,24.6926,VALID,325,VALID,1.85391,
2010-12-24, 03:32:05,VALID,998.133,VALID,0,INVALID,163.693,VALID,0.100563,VALID,24.7335,VALID,351,VALID,0.930469,
2010-12-24, 03:33:05,VALID,998.132,VALID,0,INVALID,163.647,VALID,0,VALID,24.6945,VALID,343,VALID,0.322656,
2010-12-24, 03:34:05,VALID,998.115,VALID,0,INVALID,163.647,VALID,0,VALID,24.714,VALID,13,VALID,0.792188,
2010-12-24, 03:35:05,VALID,998.057,VALID,0,INVALID,163.67,VALID,0,VALID,24.675,VALID,11,VALID,0.499219,
2010-12-24, 03:36:05,VALID,998.079,VALID,0,INVALID,163.67,VALID,0,VALID,24.675,VALID,358,VALID,1.14688,
2010-12-24, 03:37:05,VALID,998.082,VALID,0,INVALID,163.647,VALID,0,VALID,24.6769,VALID,317,VALID,0.424609,
2010-12-24, 03:38:05,VALID,998.084,VALID,0,INVALID,163.67,VALID,0,VALID,24.6361,VALID,5,VALID,0.644922,
2010-12-24, 03:39:05,VALID,998.084,VALID,0,INVALID,163.693,VALID,0,VALID,24.6556,VALID,306,VALID,0.448047,
2010-12-24, 03:40:05,VALID,998.053,VALID,0,INVALID,163.67,VALID,0,VALID,24.6556,VALID,6,VALID,1.27734,
2010-12-24, 03:41:05,VALID,998.039,VALID,0,INVALID,163.678,VALID,0,VALID,24.6361,VALID,355,VALID,1.67773,